Data supplied by UK-AIR on 21/1/2015
All Data GMT hour ending 
Status: R =Ratified P=Provisional,P*=As supplied
,,Fort William,,,,,,,,,,,,,,,,,,,,,,,
Date,time,"Nitric oxide",status,unit,"Nitrogen dioxide",status,unit,"Nitrogen oxides as nitrogen dioxide",status,unit,"Ozone",status,unit
 
01-01-2013,01:00,0.40205,R,ugm-3,-0.04080,R,ugm-3,0.57566,R,ugm-3,67.52118,R,ugm-3
01-01-2013,02:00,1.77491,R,ugm-3,2.22328,R,ugm-3,4.94477,R,ugm-3,64.16176,R,ugm-3
01-01-2013,03:00,0.36858,R,ugm-3,-0.08511,R,ugm-3,0.48004,R,ugm-3,66.00778,R,ugm-3
01-01-2013,04:00,0.33490,R,ugm-3,0.15874,R,ugm-3,0.67224,R,ugm-3,68.15316,R,ugm-3
01-01-2013,05:00,0.46867,R,ugm-3,-0.33469,R,ugm-3,0.38393,R,ugm-3,67.25509,R,ugm-3
01-01-2013,06:00,0.33490,R,ugm-3,0.01482,R,ugm-3,0.52833,R,ugm-3,64.06197,R,ugm-3
01-01-2013,07:00,0.50266,R,ugm-3,0.81377,R,ugm-3,1.58451,R,ugm-3,65.55875,R,ugm-3
01-01-2013,08:00,0.43562,R,ugm-3,0.96390,R,ugm-3,1.63184,R,ugm-3,69.25079,R,ugm-3
01-01-2013,09:00,0.60307,R,ugm-3,0.03586,R,ugm-3,0.96055,R,ugm-3,71.79531,R,ugm-3
01-01-2013,10:00,0.60307,R,ugm-3,0.65886,R,ugm-3,1.58355,R,ugm-3,69.84950,R,ugm-3
01-01-2013,11:00,0.97134,R,ugm-3,3.16710,R,ugm-3,4.65646,R,ugm-3,69.79961,R,ugm-3
01-01-2013,12:00,0.67011,R,ugm-3,1.85273,R,ugm-3,2.88023,R,ugm-3,68.60219,R,ugm-3
01-01-2013,13:00,0.90398,R,ugm-3,2.79034,R,ugm-3,4.17642,R,ugm-3,66.60649,R,ugm-3
01-01-2013,14:00,0.50235,R,ugm-3,0.86206,R,ugm-3,1.63232,R,ugm-3,67.30498,R,ugm-3
01-01-2013,15:00,0.73653,R,ugm-3,1.41525,R,ugm-3,2.54458,R,ugm-3,67.95359,R,ugm-3
01-01-2013,16:00,0.66980,R,ugm-3,1.42147,R,ugm-3,2.44848,R,ugm-3,67.35488,R,ugm-3
01-01-2013,17:00,0.53603,R,ugm-3,2.15491,R,ugm-3,2.97681,R,ugm-3,64.36133,R,ugm-3
01-01-2013,18:00,1.20552,R,ugm-3,7.41620,R,ugm-3,9.26463,R,ugm-3,59.72132,R,ugm-3
01-01-2013,19:00,0.73715,R,ugm-3,3.23834,R,ugm-3,4.36863,R,ugm-3,65.10971,R,ugm-3
01-01-2013,20:00,0.36858,R,ugm-3,1.97896,R,ugm-3,2.54410,R,ugm-3,60.27014,R,ugm-3
01-01-2013,21:00,1.00470,R,ugm-3,17.80490,R,ugm-3,19.34542,R,ugm-3,36.12217,R,ugm-3
01-01-2013,22:00,1.44001,R,ugm-3,12.62537,R,ugm-3,14.83335,R,ugm-3,55.82971,R,ugm-3
01-01-2013,23:00,0.46867,R,ugm-3,5.33014,R,ugm-3,6.04876,R,ugm-3,62.26584,R,ugm-3
01-01-2013,24:00,0.43531,R,ugm-3,1.20488,R,ugm-3,1.87234,R,ugm-3,61.06842,R,ugm-3
02-01-2013,01:00,0.66897,R,ugm-3,2.76165,R,ugm-3,3.78739,R,ugm-3,59.67143,R,ugm-3
02-01-2013,02:00,0.63519,R,ugm-3,1.00024,R,ugm-3,1.97418,R,ugm-3,57.77552,R,ugm-3
02-01-2013,03:00,0.83569,R,ugm-3,2.37772,R,ugm-3,3.65909,R,ugm-3,56.52820,R,ugm-3
02-01-2013,04:00,0.53509,R,ugm-3,1.53861,R,ugm-3,2.35907,R,ugm-3,55.58025,R,ugm-3
02-01-2013,05:00,0.46774,R,ugm-3,2.07554,R,ugm-3,2.79273,R,ugm-3,54.03358,R,ugm-3
02-01-2013,06:00,0.46836,R,ugm-3,2.60435,R,ugm-3,3.32249,R,ugm-3,59.42197,R,ugm-3
02-01-2013,07:00,0.63519,R,ugm-3,3.02223,R,ugm-3,3.99617,R,ugm-3,58.02498,R,ugm-3
02-01-2013,08:00,4.21182,R,ugm-3,10.00811,R,ugm-3,16.46615,R,ugm-3,57.42627,R,ugm-3
02-01-2013,09:00,1.06987,R,ugm-3,5.53334,R,ugm-3,7.17379,R,ugm-3,58.67358,R,ugm-3
02-01-2013,10:00,1.13660,R,ugm-3,5.91297,R,ugm-3,7.65574,R,ugm-3,62.51530,R,ugm-3
02-01-2013,11:00,0.80264,R,ugm-3,3.05474,R,ugm-3,4.28543,R,ugm-3,61.01853,R,ugm-3
02-01-2013,12:00,1.37047,R,ugm-3,6.66172,R,ugm-3,8.76308,R,ugm-3,55.38068,R,ugm-3
02-01-2013,13:00,1.27038,R,ugm-3,5.75519,R,ugm-3,7.70307,R,ugm-3,58.22455,R,ugm-3
02-01-2013,14:00,4.61283,R,ugm-3,8.96006,R,ugm-3,16.03297,R,ugm-3,56.77767,R,ugm-3
02-01-2013,15:00,2.64053,R,ugm-3,7.79535,R,ugm-3,11.84411,R,ugm-3,56.52820,R,ugm-3
02-01-2013,16:00,1.97229,R,ugm-3,7.61653,R,ugm-3,10.64067,R,ugm-3,57.97509,R,ugm-3
02-01-2013,17:00,2.47371,R,ugm-3,8.43652,R,ugm-3,12.22948,R,ugm-3,55.28089,R,ugm-3
02-01-2013,18:00,2.90870,R,ugm-3,8.49150,R,ugm-3,12.95145,R,ugm-3,56.37853,R,ugm-3
02-01-2013,19:00,6.68584,R,ugm-3,14.59238,R,ugm-3,24.84385,R,ugm-3,54.08347,R,ugm-3
02-01-2013,20:00,8.22345,R,ugm-3,18.10898,R,ugm-3,30.71810,R,ugm-3,57.67573,R,ugm-3
02-01-2013,21:00,0.86906,R,ugm-3,2.90461,R,ugm-3,4.23714,R,ugm-3,66.15746,R,ugm-3
02-01-2013,22:00,0.63488,R,ugm-3,2.25293,R,ugm-3,3.22639,R,ugm-3,69.74972,R,ugm-3
02-01-2013,23:00,1.30343,R,ugm-3,3.63471,R,ugm-3,5.63327,R,ugm-3,71.79531,R,ugm-3
02-01-2013,24:00,0.66855,R,ugm-3,0.80468,R,ugm-3,1.82978,R,ugm-3,72.84305,R,ugm-3
03-01-2013,01:00,0.75545,R,ugm-3,1.29094,R,ugm-3,2.44928,R,ugm-3,73.44176,R,ugm-3
03-01-2013,02:00,0.83320,R,ugm-3,0.26918,R,ugm-3,1.54673,R,ugm-3,76.83445,R,ugm-3
03-01-2013,03:00,0.50017,R,ugm-3,0.24815,R,ugm-3,1.01506,R,ugm-3,74.43961,R,ugm-3
03-01-2013,04:00,0.50017,R,ugm-3,0.29644,R,ugm-3,1.06335,R,ugm-3,75.43746,R,ugm-3
03-01-2013,05:00,0.66668,R,ugm-3,2.31317,R,ugm-3,3.33540,R,ugm-3,76.13596,R,ugm-3
03-01-2013,06:00,1.20021,R,ugm-3,3.52474,R,ugm-3,5.36504,R,ugm-3,76.96750,R,ugm-3
03-01-2013,07:00,0.36702,R,ugm-3,0.93617,R,ugm-3,1.49892,R,ugm-3,77.23359,R,ugm-3
03-01-2013,08:00,0.80014,R,ugm-3,2.78556,R,ugm-3,4.01243,R,ugm-3,75.03832,R,ugm-3
03-01-2013,09:00,0.69974,R,ugm-3,1.92398,R,ugm-3,2.99689,R,ugm-3,73.74112,R,ugm-3
03-01-2013,10:00,0.66637,R,ugm-3,2.31317,R,ugm-3,3.33492,R,ugm-3,73.14241,R,ugm-3
03-01-2013,11:00,2.06678,R,ugm-3,6.69184,R,ugm-3,9.86085,R,ugm-3,69.79961,R,ugm-3
03-01-2013,12:00,0.93298,R,ugm-3,3.35500,R,ugm-3,4.78555,R,ugm-3,73.39187,R,ugm-3
03-01-2013,13:00,1.26663,R,ugm-3,6.17881,R,ugm-3,8.12095,R,ugm-3,70.39832,R,ugm-3
03-01-2013,14:00,2.39981,R,ugm-3,16.13911,R,ugm-3,19.81876,R,ugm-3,59.82111,R,ugm-3
03-01-2013,15:00,2.80019,R,ugm-3,17.45873,R,ugm-3,21.75230,R,ugm-3,59.37208,R,ugm-3
03-01-2013,16:00,2.40012,R,ugm-3,15.12405,R,ugm-3,18.80418,R,ugm-3,59.37208,R,ugm-3
03-01-2013,17:00,1.93363,R,ugm-3,12.89073,R,ugm-3,15.85558,R,ugm-3,60.86885,R,ugm-3
03-01-2013,18:00,4.40016,R,ugm-3,13.45874,R,ugm-3,20.20556,R,ugm-3,55.18111,R,ugm-3
03-01-2013,19:00,2.96702,R,ugm-3,12.90077,R,ugm-3,17.45013,R,ugm-3,56.17896,R,ugm-3
03-01-2013,20:00,4.26670,R,ugm-3,14.38869,R,ugm-3,20.93088,R,ugm-3,59.27229,R,ugm-3
03-01-2013,21:00,1.13317,R,ugm-3,7.30145,R,ugm-3,9.03895,R,ugm-3,62.76477,R,ugm-3
03-01-2013,22:00,3.86663,R,ugm-3,6.49437,R,ugm-3,12.42312,R,ugm-3,63.11401,R,ugm-3
03-01-2013,23:00,1.63303,R,ugm-3,4.60195,R,ugm-3,7.10589,R,ugm-3,64.61079,R,ugm-3
03-01-2013,24:00,0.53353,R,ugm-3,2.27588,R,ugm-3,3.09395,R,ugm-3,65.40907,R,ugm-3
04-01-2013,01:00,0.39914,R,ugm-3,3.52538,R,ugm-3,4.13738,R,ugm-3,64.52763,R,ugm-3
04-01-2013,02:00,0.76522,R,ugm-3,0.52355,R,ugm-3,1.69687,R,ugm-3,67.55445,R,ugm-3
04-01-2013,03:00,0.33272,R,ugm-3,0.50777,R,ugm-3,1.01793,R,ugm-3,68.45251,R,ugm-3
04-01-2013,04:00,0.49861,R,ugm-3,0.49582,R,ugm-3,1.26034,R,ugm-3,69.00133,R,ugm-3
04-01-2013,05:00,0.43219,R,ugm-3,0.69472,R,ugm-3,1.35740,R,ugm-3,67.40477,R,ugm-3
04-01-2013,06:00,0.99815,R,ugm-3,2.10518,R,ugm-3,3.63566,R,ugm-3,66.55660,R,ugm-3
04-01-2013,07:00,0.56596,R,ugm-3,1.79918,R,ugm-3,2.66698,R,ugm-3,65.50885,R,ugm-3
04-01-2013,08:00,4.82456,R,ugm-3,11.70450,R,ugm-3,19.10205,R,ugm-3,58.92304,R,ugm-3
04-01-2013,09:00,1.73001,R,ugm-3,5.54099,R,ugm-3,8.19363,R,ugm-3,63.21380,R,ugm-3
04-01-2013,10:00,1.26445,R,ugm-3,4.16973,R,ugm-3,6.10853,R,ugm-3,65.15961,R,ugm-3
04-01-2013,11:00,4.09239,R,ugm-3,7.88189,R,ugm-3,14.15680,R,ugm-3,64.16176,R,ugm-3
04-01-2013,12:00,1.59686,R,ugm-3,6.08462,R,ugm-3,8.53310,R,ugm-3,68.45251,R,ugm-3
04-01-2013,13:00,4.09239,R,ugm-3,13.45731,R,ugm-3,19.73222,R,ugm-3,63.26369,R,ugm-3
04-01-2013,14:00,3.39390,R,ugm-3,16.12763,R,ugm-3,21.33155,R,ugm-3,60.86885,R,ugm-3
04-01-2013,15:00,3.42727,R,ugm-3,15.93113,R,ugm-3,21.18620,R,ugm-3,56.17896,R,ugm-3
04-01-2013,16:00,4.55826,R,ugm-3,19.19050,R,ugm-3,26.17973,R,ugm-3,50.24175,R,ugm-3
04-01-2013,17:00,2.72816,R,ugm-3,18.74872,R,ugm-3,22.93183,R,ugm-3,49.64304,R,ugm-3
04-01-2013,18:00,2.62837,R,ugm-3,18.51348,R,ugm-3,22.54359,R,ugm-3,47.04863,R,ugm-3
04-01-2013,19:00,2.76152,R,ugm-3,17.77621,R,ugm-3,22.01048,R,ugm-3,47.89680,R,ugm-3
04-01-2013,20:00,2.19587,R,ugm-3,15.00787,R,ugm-3,18.37482,R,ugm-3,48.34583,R,ugm-3
04-01-2013,21:00,0.99815,R,ugm-3,6.46855,R,ugm-3,7.99903,R,ugm-3,52.23745,R,ugm-3
04-01-2013,22:00,0.69880,R,ugm-3,5.57063,R,ugm-3,6.64211,R,ugm-3,49.69293,R,ugm-3
04-01-2013,23:00,1.09825,R,ugm-3,4.42457,R,ugm-3,6.10853,R,ugm-3,50.79057,R,ugm-3
04-01-2013,24:00,0.69880,R,ugm-3,2.61295,R,ugm-3,3.68443,R,ugm-3,49.94239,R,ugm-3
05-01-2013,01:00,0.75254,R,ugm-3,4.61678,R,ugm-3,5.77065,R,ugm-3,46.83243,R,ugm-3
05-01-2013,02:00,0.96323,R,ugm-3,2.65598,R,ugm-3,4.13291,R,ugm-3,50.44132,R,ugm-3
05-01-2013,03:00,0.36577,R,ugm-3,2.06502,R,ugm-3,2.62586,R,ugm-3,51.78842,R,ugm-3
05-01-2013,04:00,0.59777,R,ugm-3,2.68228,R,ugm-3,3.59885,R,ugm-3,52.28734,R,ugm-3
05-01-2013,05:00,0.39882,R,ugm-3,2.45183,R,ugm-3,3.06335,R,ugm-3,54.03358,R,ugm-3
05-01-2013,06:00,0.73092,R,ugm-3,3.49940,R,ugm-3,4.62012,R,ugm-3,54.23315,R,ugm-3
05-01-2013,07:00,0.53135,R,ugm-3,2.68611,R,ugm-3,3.50083,R,ugm-3,58.02498,R,ugm-3
05-01-2013,08:00,0.76366,R,ugm-3,3.83743,R,ugm-3,5.00836,R,ugm-3,59.67143,R,ugm-3
05-01-2013,09:00,0.92986,R,ugm-3,3.63088,R,ugm-3,5.05665,R,ugm-3,60.22025,R,ugm-3
05-01-2013,10:00,0.66419,R,ugm-3,1.80253,R,ugm-3,2.82094,R,ugm-3,61.01853,R,ugm-3
05-01-2013,11:00,2.45781,R,ugm-3,8.87400,R,ugm-3,12.64258,R,ugm-3,55.23100,R,ugm-3
05-01-2013,12:00,2.59033,R,ugm-3,12.46424,R,ugm-3,16.43603,R,ugm-3,50.14196,R,ugm-3
05-01-2013,13:00,2.65644,R,ugm-3,9.15275,R,ugm-3,13.22589,R,ugm-3,54.48261,R,ugm-3
05-01-2013,14:00,2.32434,R,ugm-3,9.46783,R,ugm-3,13.03178,R,ugm-3,53.33508,R,ugm-3
05-01-2013,15:00,2.25793,R,ugm-3,7.04087,R,ugm-3,10.50297,R,ugm-3,56.87745,R,ugm-3
05-01-2013,16:00,3.18810,R,ugm-3,16.16684,R,ugm-3,21.05519,R,ugm-3,49.29379,R,ugm-3
05-01-2013,17:00,2.52391,R,ugm-3,11.98181,R,ugm-3,15.85176,R,ugm-3,52.48691,R,ugm-3
05-01-2013,18:00,0.96292,R,ugm-3,6.44943,R,ugm-3,7.92588,R,ugm-3,56.92734,R,ugm-3
05-01-2013,19:00,0.99597,R,ugm-3,6.15538,R,ugm-3,7.68251,R,ugm-3,60.02068,R,ugm-3
05-01-2013,20:00,0.96292,R,ugm-3,4.11522,R,ugm-3,5.59167,R,ugm-3,64.11186,R,ugm-3
05-01-2013,21:00,0.39882,R,ugm-3,2.20846,R,ugm-3,2.81998,R,ugm-3,74.19015,R,ugm-3
05-01-2013,22:00,0.56503,R,ugm-3,2.00334,R,ugm-3,2.86971,R,ugm-3,78.33123,R,ugm-3
05-01-2013,23:00,0.53166,R,ugm-3,1.90772,R,ugm-3,2.72292,R,ugm-3,78.97983,R,ugm-3
05-01-2013,24:00,0.39851,R,ugm-3,1.38226,R,ugm-3,1.99330,R,ugm-3,77.63273,R,ugm-3
06-01-2013,01:00,1.14918,R,ugm-3,2.26950,R,ugm-3,4.03155,R,ugm-3,77.10054,R,ugm-3
06-01-2013,02:00,0.62989,R,ugm-3,5.03274,R,ugm-3,5.99856,R,ugm-3,66.50670,R,ugm-3
06-01-2013,03:00,0.46400,R,ugm-3,1.72699,R,ugm-3,2.43844,R,ugm-3,68.60219,R,ugm-3
06-01-2013,04:00,0.39789,R,ugm-3,1.58451,R,ugm-3,2.19459,R,ugm-3,66.20735,R,ugm-3
06-01-2013,05:00,0.29873,R,ugm-3,1.93163,R,ugm-3,2.38967,R,ugm-3,68.30283,R,ugm-3
06-01-2013,06:00,0.36452,R,ugm-3,3.00119,R,ugm-3,3.56012,R,ugm-3,66.80606,R,ugm-3
06-01-2013,07:00,0.39789,R,ugm-3,2.90126,R,ugm-3,3.51135,R,ugm-3,62.66498,R,ugm-3
06-01-2013,08:00,1.42535,R,ugm-3,10.39683,R,ugm-3,12.58234,R,ugm-3,42.45852,R,ugm-3
06-01-2013,09:00,0.79547,R,ugm-3,11.60648,R,ugm-3,12.82618,R,ugm-3,29.98539,R,ugm-3
06-01-2013,10:00,1.09419,R,ugm-3,10.46568,R,ugm-3,12.14342,R,ugm-3,33.92690,R,ugm-3
06-01-2013,11:00,2.18745,R,ugm-3,17.56775,R,ugm-3,20.92179,R,ugm-3,35.62325,R,ugm-3
06-01-2013,12:00,1.95577,R,ugm-3,18.75206,R,ugm-3,21.75086,R,ugm-3,28.88776,R,ugm-3
06-01-2013,13:00,2.81734,R,ugm-3,24.40493,R,ugm-3,28.72479,R,ugm-3,35.72303,R,ugm-3
06-01-2013,14:00,0.99441,R,ugm-3,6.61964,R,ugm-3,8.14438,R,ugm-3,66.30713,R,ugm-3
06-01-2013,15:00,1.82293,R,ugm-3,7.05617,R,ugm-3,9.85129,R,ugm-3,63.96219,R,ugm-3
06-01-2013,16:00,2.95018,R,ugm-3,9.03417,R,ugm-3,13.55771,R,ugm-3,62.16606,R,ugm-3
06-01-2013,17:00,1.06052,R,ugm-3,5.29906,R,ugm-3,6.92516,R,ugm-3,64.06197,R,ugm-3
06-01-2013,18:00,1.19304,R,ugm-3,6.31508,R,ugm-3,8.14438,R,ugm-3,60.81896,R,ugm-3
06-01-2013,19:00,6.72887,R,ugm-3,18.50487,R,ugm-3,28.82233,R,ugm-3,49.99229,R,ugm-3
06-01-2013,20:00,1.09419,R,ugm-3,7.68586,R,ugm-3,9.36360,R,ugm-3,54.33293,R,ugm-3
06-01-2013,21:00,0.62989,R,ugm-3,4.93521,R,ugm-3,5.90102,R,ugm-3,54.93164,R,ugm-3
06-01-2013,22:00,0.63020,R,ugm-3,4.49581,R,ugm-3,5.46210,R,ugm-3,54.68218,R,ugm-3
06-01-2013,23:00,1.16030,R,ugm-3,5.48744,R,ugm-3,7.26654,R,ugm-3,52.43702,R,ugm-3
06-01-2013,24:00,0.49736,R,ugm-3,3.57781,R,ugm-3,4.34042,R,ugm-3,53.83401,R,ugm-3
07-01-2013,01:00,0.30850,R,ugm-3,2.66029,R,ugm-3,3.13331,R,ugm-3,53.88390,R,ugm-3
07-01-2013,02:00,0.72780,R,ugm-3,2.21372,R,ugm-3,3.32966,R,ugm-3,52.58670,R,ugm-3
07-01-2013,03:00,0.36359,R,ugm-3,1.84174,R,ugm-3,2.39923,R,ugm-3,51.88820,R,ugm-3
07-01-2013,04:00,0.76054,R,ugm-3,2.89792,R,ugm-3,4.06406,R,ugm-3,48.94454,R,ugm-3
07-01-2013,05:00,0.56222,R,ugm-3,4.32799,R,ugm-3,5.19005,R,ugm-3,47.34798,R,ugm-3
07-01-2013,06:00,3.67236,R,ugm-3,10.77072,R,ugm-3,16.40160,R,ugm-3,42.75787,R,ugm-3
07-01-2013,07:00,0.99254,R,ugm-3,9.68968,R,ugm-3,11.21155,R,ugm-3,41.71013,R,ugm-3
07-01-2013,08:00,1.58781,R,ugm-3,12.69422,R,ugm-3,15.12883,R,ugm-3,35.67314,R,ugm-3
07-01-2013,09:00,4.03626,R,ugm-3,25.29186,R,ugm-3,31.48071,R,ugm-3,30.28475,R,ugm-3
07-01-2013,10:00,4.69796,R,ugm-3,20.11615,R,ugm-3,27.31958,R,ugm-3,32.48002,R,ugm-3
07-01-2013,11:00,13.63081,R,ugm-3,43.67768,R,ugm-3,64.57795,R,ugm-3,14.36904,R,ugm-3
07-01-2013,12:00,10.38845,R,ugm-3,43.46013,R,ugm-3,59.38886,R,ugm-3,11.17592,R,ugm-3
07-01-2013,13:00,14.29250,R,ugm-3,47.31429,R,ugm-3,69.22915,R,ugm-3,11.62495,R,ugm-3
07-01-2013,14:00,5.42607,R,ugm-3,29.23256,R,ugm-3,37.55242,R,ugm-3,34.52561,R,ugm-3
07-01-2013,15:00,7.27862,R,ugm-3,38.09365,R,ugm-3,49.25405,R,ugm-3,30.98324,R,ugm-3
07-01-2013,16:00,3.17625,R,ugm-3,34.54214,R,ugm-3,39.41232,R,ugm-3,31.73163,R,ugm-3
07-01-2013,17:00,2.68014,R,ugm-3,33.98130,R,ugm-3,38.09078,R,ugm-3,30.08518,R,ugm-3
07-01-2013,18:00,8.93285,R,ugm-3,48.33557,R,ugm-3,62.03242,R,ugm-3,26.64260,R,ugm-3
07-01-2013,19:00,4.26795,R,ugm-3,30.02864,R,ugm-3,36.57274,R,ugm-3,38.91615,R,ugm-3
07-01-2013,20:00,1.72065,R,ugm-3,35.64852,R,ugm-3,38.28682,R,ugm-3,28.13937,R,ugm-3
07-01-2013,21:00,3.87100,R,ugm-3,29.80583,R,ugm-3,35.74128,R,ugm-3,22.90066,R,ugm-3
07-01-2013,22:00,15.11946,R,ugm-3,52.55837,R,ugm-3,75.74122,R,ugm-3,3.19312,R,ugm-3
07-01-2013,23:00,12.00963,R,ugm-3,46.89785,R,ugm-3,65.31235,R,ugm-3,5.68775,R,ugm-3
07-01-2013,24:00,1.05896,R,ugm-3,17.96029,R,ugm-3,19.58400,R,ugm-3,19.80732,R,ugm-3
08-01-2013,01:00,0.92467,R,ugm-3,10.43269,R,ugm-3,11.85049,R,ugm-3,27.93980,R,ugm-3
08-01-2013,02:00,1.02372,R,ugm-3,11.54146,R,ugm-3,13.11114,R,ugm-3,20.35614,R,ugm-3
08-01-2013,03:00,0.66076,R,ugm-3,10.57517,R,ugm-3,11.58832,R,ugm-3,20.00689,R,ugm-3
08-01-2013,04:00,0.66076,R,ugm-3,6.69614,R,ugm-3,7.70929,R,ugm-3,23.15012,R,ugm-3
08-01-2013,05:00,0.89182,R,ugm-3,9.19004,R,ugm-3,10.55748,R,ugm-3,30.28475,R,ugm-3
08-01-2013,06:00,0.72686,R,ugm-3,8.95241,R,ugm-3,10.06692,R,ugm-3,31.88131,R,ugm-3
08-01-2013,07:00,0.82540,R,ugm-3,12.13959,R,ugm-3,13.40519,R,ugm-3,33.17851,R,ugm-3
08-01-2013,08:00,2.01408,R,ugm-3,16.60193,R,ugm-3,19.69014,R,ugm-3,48.09637,R,ugm-3
08-01-2013,09:00,3.50024,R,ugm-3,9.36360,R,ugm-3,14.73055,R,ugm-3,56.37853,R,ugm-3
08-01-2013,10:00,1.15562,R,ugm-3,4.95529,R,ugm-3,6.72722,R,ugm-3,67.80391,R,ugm-3
08-01-2013,11:00,3.30223,R,ugm-3,12.31937,R,ugm-3,17.38271,R,ugm-3,70.89724,R,ugm-3
08-01-2013,12:00,2.21240,R,ugm-3,10.99448,R,ugm-3,14.38678,R,ugm-3,73.19230,R,ugm-3
08-01-2013,13:00,8.32167,R,ugm-3,11.20295,R,ugm-3,23.96267,R,ugm-3,72.34413,R,ugm-3
08-01-2013,14:00,3.13696,R,ugm-3,11.98373,R,ugm-3,16.79366,R,ugm-3,71.14671,R,ugm-3
08-01-2013,15:00,4.06183,R,ugm-3,7.91345,R,ugm-3,14.14150,R,ugm-3,71.39617,R,ugm-3
08-01-2013,16:00,4.06152,R,ugm-3,13.95408,R,ugm-3,20.18166,R,ugm-3,64.76047,R,ugm-3
08-01-2013,17:00,2.50988,R,ugm-3,11.76618,R,ugm-3,15.61461,R,ugm-3,65.55875,R,ugm-3
08-01-2013,18:00,3.53329,R,ugm-3,11.42480,R,ugm-3,16.84243,R,ugm-3,64.66068,R,ugm-3
08-01-2013,19:00,2.47683,R,ugm-3,11.37507,R,ugm-3,15.17282,R,ugm-3,63.36348,R,ugm-3
08-01-2013,20:00,3.13727,R,ugm-3,10.85344,R,ugm-3,15.66385,R,ugm-3,63.16391,R,ugm-3
08-01-2013,21:00,1.02372,R,ugm-3,4.51924,R,ugm-3,6.08892,R,ugm-3,67.75402,R,ugm-3
08-01-2013,22:00,0.42970,R,ugm-3,2.23810,R,ugm-3,2.89696,R,ugm-3,70.94714,R,ugm-3
08-01-2013,23:00,0.49580,R,ugm-3,1.94023,R,ugm-3,2.70045,R,ugm-3,71.29638,R,ugm-3
08-01-2013,24:00,0.39664,R,ugm-3,0.61965,R,ugm-3,1.22783,R,ugm-3,73.39187,R,ugm-3
09-01-2013,01:00,0.13221,R,ugm-3,0.45390,R,ugm-3,0.65663,R,ugm-3,70.78083,R,ugm-3
09-01-2013,02:00,0.98880,R,ugm-3,0.05977,R,ugm-3,1.57590,R,ugm-3,72.74327,R,ugm-3
09-01-2013,03:00,0.23075,R,ugm-3,-0.25532,R,ugm-3,0.09849,R,ugm-3,72.74327,R,ugm-3
09-01-2013,04:00,0.32929,R,ugm-3,0.52928,R,ugm-3,1.03418,R,ugm-3,72.94284,R,ugm-3
09-01-2013,05:00,0.65920,R,ugm-3,1.30385,R,ugm-3,2.31460,R,ugm-3,70.89724,R,ugm-3
09-01-2013,06:00,1.71379,R,ugm-3,5.10398,R,ugm-3,7.73176,R,ugm-3,66.55660,R,ugm-3
09-01-2013,07:00,3.16409,R,ugm-3,11.10445,R,ugm-3,15.95599,R,ugm-3,63.96219,R,ugm-3
09-01-2013,08:00,2.57100,R,ugm-3,21.32151,R,ugm-3,25.26365,R,ugm-3,51.48906,R,ugm-3
09-01-2013,09:00,1.61494,R,ugm-3,10.13099,R,ugm-3,12.60720,R,ugm-3,61.41767,R,ugm-3
09-01-2013,10:00,5.00978,R,ugm-3,22.11280,R,ugm-3,29.79436,R,ugm-3,51.78842,R,ugm-3
09-01-2013,11:00,3.49400,R,ugm-3,13.15943,R,ugm-3,18.51683,R,ugm-3,57.12691,R,ugm-3
09-01-2013,12:00,3.06524,R,ugm-3,14.94953,R,ugm-3,19.64950,R,ugm-3,54.13336,R,ugm-3
09-01-2013,13:00,,,,,,,,,,,,
09-01-2013,14:00,3.72444,R,ugm-3,20.53786,R,ugm-3,26.24858,R,ugm-3,40.31314,R,ugm-3
09-01-2013,15:00,3.82360,R,ugm-3,26.19695,R,ugm-3,32.05972,R,ugm-3,39.16561,R,ugm-3
09-01-2013,16:00,2.43910,R,ugm-3,24.72480,R,ugm-3,28.46469,R,ugm-3,41.80992,R,ugm-3
09-01-2013,17:00,3.59254,R,ugm-3,37.43480,R,ugm-3,42.94328,R,ugm-3,28.53851,R,ugm-3
09-01-2013,18:00,2.93334,R,ugm-3,33.52087,R,ugm-3,38.01859,R,ugm-3,34.02669,R,ugm-3
09-01-2013,19:00,3.39484,R,ugm-3,38.03341,R,ugm-3,43.23876,R,ugm-3,29.03744,R,ugm-3
09-01-2013,20:00,3.79055,R,ugm-3,35.40755,R,ugm-3,41.21963,R,ugm-3,28.83787,R,ugm-3
09-01-2013,21:00,2.47215,R,ugm-3,18.46901,R,ugm-3,22.25959,R,ugm-3,47.29809,R,ugm-3
09-01-2013,22:00,0.79110,R,ugm-3,7.01123,R,ugm-3,8.22423,R,ugm-3,53.03573,R,ugm-3
09-01-2013,23:00,0.88995,R,ugm-3,9.71598,R,ugm-3,11.08055,R,ugm-3,48.69508,R,ugm-3
09-01-2013,24:00,0.16496,R,ugm-3,6.05067,R,ugm-3,6.30360,R,ugm-3,51.68863,R,ugm-3
10-01-2013,01:00,0.30725,R,ugm-3,3.00900,R,ugm-3,3.48011,R,ugm-3,55.21437,R,ugm-3
10-01-2013,02:00,0.65920,R,ugm-3,2.48577,R,ugm-3,3.49653,R,ugm-3,51.08992,R,ugm-3
10-01-2013,03:00,0.32929,R,ugm-3,2.59765,R,ugm-3,3.10255,R,ugm-3,44.00519,R,ugm-3
10-01-2013,04:00,0.39539,R,ugm-3,5.59884,R,ugm-3,6.20511,R,ugm-3,29.43658,R,ugm-3
10-01-2013,05:00,0.46150,R,ugm-3,7.91058,R,ugm-3,8.61820,R,ugm-3,23.24991,R,ugm-3
10-01-2013,06:00,1.05459,R,ugm-3,15.12692,R,ugm-3,16.74394,R,ugm-3,15.61635,R,ugm-3
10-01-2013,07:00,1.25260,R,ugm-3,14.42933,R,ugm-3,16.34996,R,ugm-3,13.92001,R,ugm-3
10-01-2013,08:00,2.90028,R,ugm-3,22.39251,R,ugm-3,26.83955,R,ugm-3,5.23871,R,ugm-3
10-01-2013,09:00,11.00867,R,ugm-3,20.69564,R,ugm-3,37.57537,R,ugm-3,9.08044,R,ugm-3
10-01-2013,10:00,64.79911,R,ugm-3,47.44769,R,ugm-3,146.80493,R,ugm-3,1.29721,R,ugm-3
10-01-2013,11:00,54.05424,R,ugm-3,45.94781,R,ugm-3,128.82983,R,ugm-3,2.24516,R,ugm-3
10-01-2013,12:00,55.27410,R,ugm-3,44.86534,R,ugm-3,129.61778,R,ugm-3,4.24086,R,ugm-3
10-01-2013,13:00,61.40427,R,ugm-3,53.49023,R,ugm-3,147.64213,R,ugm-3,4.14108,R,ugm-3
10-01-2013,14:00,46.44072,R,ugm-3,55.94732,R,ugm-3,127.15543,R,ugm-3,8.83097,R,ugm-3
10-01-2013,15:00,19.11674,R,ugm-3,46.18353,R,ugm-3,75.49546,R,ugm-3,12.37334,R,ugm-3
10-01-2013,16:00,45.25392,R,ugm-3,62.15003,R,ugm-3,131.53840,R,ugm-3,5.38839,R,ugm-3
10-01-2013,17:00,58.96548,R,ugm-3,64.61668,R,ugm-3,155.02916,R,ugm-3,2.49463,R,ugm-3
10-01-2013,18:00,29.72940,R,ugm-3,53.45103,R,ugm-3,99.03547,R,ugm-3,5.58796,R,ugm-3
10-01-2013,19:00,30.61997,R,ugm-3,47.80103,R,ugm-3,94.75099,R,ugm-3,3.54237,R,ugm-3
10-01-2013,20:00,23.17047,R,ugm-3,42.13477,R,ugm-3,77.66232,R,ugm-3,3.29291,R,ugm-3
10-01-2013,21:00,37.57398,R,ugm-3,43.78669,R,ugm-3,101.39932,R,ugm-3,1.79613,R,ugm-3
10-01-2013,22:00,13.84316,R,ugm-3,35.50652,R,ugm-3,56.73240,R,ugm-3,2.99355,R,ugm-3
10-01-2013,23:00,25.41187,R,ugm-3,33.77332,R,ugm-3,72.73763,R,ugm-3,0.94796,R,ugm-3
10-01-2013,24:00,6.09774,R,ugm-3,23.74417,R,ugm-3,33.09390,R,ugm-3,2.99355,R,ugm-3
11-01-2013,01:00,3.03260,R,ugm-3,22.40303,R,ugm-3,27.05295,R,ugm-3,7.84975,R,ugm-3
11-01-2013,02:00,1.51641,R,ugm-3,20.62392,R,ugm-3,22.94904,R,ugm-3,7.38409,R,ugm-3
11-01-2013,03:00,0.98911,R,ugm-3,20.84147,R,ugm-3,22.35808,R,ugm-3,7.08474,R,ugm-3
11-01-2013,04:00,1.51641,R,ugm-3,23.92346,R,ugm-3,26.24858,R,ugm-3,4.19097,R,ugm-3
11-01-2013,05:00,1.41756,R,ugm-3,18.41164,R,ugm-3,20.58519,R,ugm-3,7.93291,R,ugm-3
11-01-2013,06:00,1.71379,R,ugm-3,15.29809,R,ugm-3,17.92586,R,ugm-3,8.58151,R,ugm-3
11-01-2013,07:00,3.42789,R,ugm-3,24.34134,R,ugm-3,29.59737,R,ugm-3,7.53377,R,ugm-3
11-01-2013,08:00,28.64237,R,ugm-3,37.33965,R,ugm-3,81.25734,R,ugm-3,3.09334,R,ugm-3
11-01-2013,09:00,30.52050,R,ugm-3,47.85505,R,ugm-3,94.65249,R,ugm-3,1.69635,R,ugm-3
11-01-2013,10:00,36.48664,R,ugm-3,50.28010,R,ugm-3,106.22551,R,ugm-3,2.99355,R,ugm-3
11-01-2013,11:00,33.84985,R,ugm-3,48.56124,R,ugm-3,100.46363,R,ugm-3,3.79183,R,ugm-3
11-01-2013,12:00,13.97506,R,ugm-3,35.10728,R,ugm-3,56.53541,R,ugm-3,11.87442,R,ugm-3
11-01-2013,13:00,11.27247,R,ugm-3,34.42500,R,ugm-3,51.70922,R,ugm-3,17.31270,R,ugm-3
11-01-2013,14:00,4.18594,R,ugm-3,24.75492,R,ugm-3,31.17327,R,ugm-3,28.48862,R,ugm-3
11-01-2013,15:00,2.50520,R,ugm-3,22.50582,R,ugm-3,26.34708,R,ugm-3,31.28260,R,ugm-3
11-01-2013,16:00,3.32873,R,ugm-3,27.30046,R,ugm-3,32.40444,R,ugm-3,23.89851,R,ugm-3
11-01-2013,17:00,31.01505,R,ugm-3,56.69989,R,ugm-3,104.25563,R,ugm-3,3.74194,R,ugm-3
11-01-2013,18:00,36.94752,R,ugm-3,47.80055,R,ugm-3,104.45262,R,ugm-3,3.89162,R,ugm-3
11-01-2013,19:00,45.15507,R,ugm-3,47.08432,R,ugm-3,116.32112,R,ugm-3,3.49248,R,ugm-3
11-01-2013,20:00,54.91114,R,ugm-3,49.06614,R,ugm-3,133.26204,R,ugm-3,3.54237,R,ugm-3
11-01-2013,21:00,54.05424,R,ugm-3,43.97794,R,ugm-3,126.85995,R,ugm-3,3.84172,R,ugm-3
11-01-2013,22:00,39.38724,R,ugm-3,40.71091,R,ugm-3,101.10383,R,ugm-3,3.84172,R,ugm-3
11-01-2013,23:00,29.82887,R,ugm-3,37.49026,R,ugm-3,83.22722,R,ugm-3,3.34280,R,ugm-3
11-01-2013,24:00,7.21844,R,ugm-3,25.86704,R,ugm-3,36.93516,R,ugm-3,8.78108,R,ugm-3
12-01-2013,01:00,0.83403,R,ugm-3,10.68323,R,ugm-3,11.96205,R,ugm-3,21.42051,R,ugm-3
12-01-2013,02:00,0.95512,R,ugm-3,7.70403,R,ugm-3,9.16853,R,ugm-3,20.95485,R,ugm-3
12-01-2013,03:00,0.79048,R,ugm-3,8.84388,R,ugm-3,10.05593,R,ugm-3,19.85722,R,ugm-3
12-01-2013,04:00,1.31715,R,ugm-3,11.98038,R,ugm-3,13.99998,R,ugm-3,14.96775,R,ugm-3
12-01-2013,05:00,1.11945,R,ugm-3,14.05783,R,ugm-3,15.77430,R,ugm-3,12.92216,R,ugm-3
12-01-2013,06:00,2.73315,R,ugm-3,15.13218,R,ugm-3,19.32294,R,ugm-3,9.72904,R,ugm-3
12-01-2013,07:00,5.20280,R,ugm-3,16.52209,R,ugm-3,24.49960,R,ugm-3,11.62495,R,ugm-3
12-01-2013,08:00,12.87525,R,ugm-3,28.02482,R,ugm-3,47.76660,R,ugm-3,4.14108,R,ugm-3
12-01-2013,09:00,17.81456,R,ugm-3,31.83834,R,ugm-3,59.15363,R,ugm-3,3.89162,R,ugm-3
12-01-2013,10:00,30.91994,R,ugm-3,40.67935,R,ugm-3,88.08927,R,ugm-3,1.59656,R,ugm-3
12-01-2013,11:00,28.18711,R,ugm-3,37.47592,R,ugm-3,80.69555,R,ugm-3,4.78968,R,ugm-3
12-01-2013,12:00,7.96838,R,ugm-3,18.29545,R,ugm-3,30.51346,R,ugm-3,15.06754,R,ugm-3
12-01-2013,13:00,5.63094,R,ugm-3,20.40016,R,ugm-3,29.03414,R,ugm-3,18.75958,R,ugm-3
12-01-2013,14:00,8.62726,R,ugm-3,28.37672,R,ugm-3,41.60500,R,ugm-3,10.37764,R,ugm-3
12-01-2013,15:00,11.32736,R,ugm-3,34.34133,R,ugm-3,51.70970,R,ugm-3,6.98495,R,ugm-3
12-01-2013,16:00,15.34491,R,ugm-3,39.61792,R,ugm-3,63.14645,R,ugm-3,5.18882,R,ugm-3
12-01-2013,17:00,33.58761,R,ugm-3,47.23732,R,ugm-3,98.73759,R,ugm-3,2.04559,R,ugm-3
12-01-2013,18:00,50.15050,R,ugm-3,46.88255,R,ugm-3,123.77891,R,ugm-3,1.64645,R,ugm-3
12-01-2013,19:00,45.14540,R,ugm-3,47.80342,R,ugm-3,117.02540,R,ugm-3,3.34280,R,ugm-3
12-01-2013,20:00,23.67563,R,ugm-3,40.05540,R,ugm-3,76.35752,R,ugm-3,2.94366,R,ugm-3
12-01-2013,21:00,4.61002,R,ugm-3,24.38151,R,ugm-3,31.45011,R,ugm-3,7.68345,R,ugm-3